| Date | Time | Temp. (oF) | Dew Point (oF) | Rel. Hum. (%) | Press. (in.) | Wind Dir. | Wind Speed (mph) | Hourly Rainfall (in.) |
|
|---|---|---|---|---|---|---|---|---|---|
| 1 | 01/24 | 00:00 | 31 | 30 | 97 | 29.90 | SE | 1 | 0.00 |
| 2 | 01/23 | 23:00 | 31 | 30 | 97 | 29.95 | ENE | 0 | 0.07 |
| 3 | 01/23 | 22:00 | 31 | 29 | 96 | 29.99 | S | 3 | 0.01 |
| 4 | 01/23 | 21:00 | 31 | 28 | 92 | 30.01 | S | 4 | 0.00 |
| 5 | 01/23 | 20:00 | 33 | 27 | 81 | 30.04 | SSE | 5 | 0.00 |
| 6 | 01/23 | 19:00 | 33 | 27 | 79 | 30.06 | S | 5 | 0.00 |
| 7 | 01/23 | 18:00 | 34 | 27 | 77 | 30.09 | S | 3 | 0.00 |
| 8 | 01/23 | 17:00 | 35 | 26 | 72 | 30.09 | SSE | 5 | 0.00 |
| 9 | 01/23 | 16:00 | 36 | 26 | 68 | 30.11 | S | 6 | 0.00 |
| 10 | 01/23 | 15:00 | 37 | 27 | 67 | 30.12 | SW | 5 | 0.00 |
| 11 | 01/23 | 14:00 | 38 | 26 | 64 | 30.15 | SSW | 6 | 0.00 |
| 12 | 01/23 | 13:00 | 37 | 27 | 67 | 30.20 | S | 4 | 0.00 |
| 13 | 01/23 | 12:00 | 34 | 25 | 71 | 30.24 | S | 6 | 0.00 |
| 14 | 01/23 | 11:00 | 33 | 25 | 75 | 30.28 | S | 4 | 0.00 |
| 15 | 01/23 | 10:00 | 30 | 26 | 87 | 30.30 | S | 0 | 0.00 |
| 16 | 01/23 | 09:00 | 27 | 25 | 95 | 30.31 | SSW | 0 | 0.00 |
| 17 | 01/23 | 08:00 | 24 | 22 | 95 | 30.32 | ESE | 0 | 0.00 |
| 18 | 01/23 | 07:00 | 25 | 23 | 92 | 30.33 | S | 0 | 0.00 |
| 19 | 01/23 | 06:00 | 27 | 24 | 89 | 30.33 | WSW | 0 | 0.00 |
| 20 | 01/23 | 05:00 | 28 | 24 | 88 | 30.33 | SSW | 0 | 0.00 |
| 21 | 01/23 | 04:00 | 30 | 24 | 81 | 30.33 | W | 0 | 0.00 |
| 22 | 01/23 | 03:00 | 31 | 25 | 79 | 30.34 | WNW | 5 | 0.00 |
| 23 | 01/23 | 02:00 | 32 | 25 | 78 | 30.34 | W | 4 | 0.00 |
| 24 | 01/23 | 01:00 | 32 | 25 | 78 | 30.34 | N | 7 | 0.00 |